Kaktovik, AK

12:54 PM AKST on January 17, 2017 (GMT -0900)
Barter Island LRRS

Weather History for PABA - May, 2013

Change the Weather History Date:

Wednesday, May 1, 2013

  Actual Average Record
Temperature  
Mean Temperature -6 °F -  
Max Temperature -6 °F 17 °F 36 °F (2014)
Min Temperature -14 °F 5 °F -14 °F (2013)
Degree Days  
Heating Degree Days 70    
Moisture  
Dew Point -9 °F    
Average Humidity 83    
Maximum Humidity 92    
Minimum Humidity 79    
Precipitation  
Precipitation 0.00 in - - ()
Sea Level Pressure  
Sea Level Pressure 30.29 in    
Wind  
Wind Speed 12 mph (West)    
Max Wind Speed 20 mph    
Max Gust Speed -    
Visibility 8 miles    
Events Snow    
Averages and records for this station are not official NWS values.
T = Trace of Precipitation, MM = Missing Value Source: NWS Daily Summary

Daily Weather History Graph

Daily Weather History Graph

Search for Another Location

Airport or City:

Trip Planner

Search our weather history database for the weather conditions in past years. The results will help you decide how hot, cold, wet, or windy it might be!

Date:

Astronomy

May. 01, 2013 Rise Set
Actual Time 4:00 AM AKDT 11:07 PM AKDT
Civil Twilight 2:03 AM AKDT 12:58 AM AKDT
Nautical Twilight Sun does not rise Sun does not rise
Astronomical Twilight Sun does not rise Sun does not rise
Moon 4:17 AM AKDT (5/1) 9:59 AM AKDT (5/1)
Length of Visible Light 22h 55m
Length of Day
19h 07m
Waning Gibbous, 57% of the Moon is Illuminated
May 1
Waning Gibbous
May 2
Last Quarter
May 9
New
May 17
First Quarter
May 24
Full

Hourly Weather History & Observations

Time (AKDT) Temp. Windchill Dew Point Humidity Pressure Visibility Wind Dir Wind Speed Gust Speed Precip Events Conditions
12:01 AM -6.0 °F -20.1 °F -9.9 °F 83% 30.38 in 3.0 mi West 6.9 mph - 0.00 in Snow Light Snow
12:05 AM -7.6 °F -22.1 °F -11.2 °F 84% 30.37 in 1.8 mi West 6.9 mph - 0.00 in Snow Light Snow
12:16 AM -7.6 °F -23.4 °F -11.2 °F 84% 30.37 in 2.0 mi West 8.1 mph - 0.00 in Snow Light Snow
12:26 AM -7.6 °F -24.6 °F -11.2 °F 84% 30.37 in 5.0 mi West 9.2 mph - 0.00 in Snow Light Snow
1:01 AM -9.0 °F -28.4 °F -11.9 °F 87% 30.37 in 9.0 mi WSW 11.5 mph - 0.00 in   Unknown
2:01 AM -11.0 °F -32.7 °F -14.1 °F 86% 30.36 in 10.0 mi WSW 13.8 mph - N/A   Unknown
3:01 AM -11.0 °F -33.5 °F -14.1 °F 86% 30.35 in 9.0 mi West 15.0 mph - 0.00 in Snow Light Snow
3:13 AM -9.4 °F -30.6 °F -13.0 °F 84% 30.35 in 1.8 mi West 13.8 mph - 0.00 in Snow Light Snow
3:23 AM -9.4 °F -29.8 °F -11.2 °F 92% 30.34 in 1.0 mi West 12.7 mph - 0.00 in Snow Light Snow
3:29 AM -9.4 °F -30.6 °F -13.0 °F 84% 30.34 in 2.0 mi West 13.8 mph - 0.00 in Snow Light Snow
3:40 AM -11.2 °F -31.1 °F -14.8 °F 84% 30.34 in 5.0 mi West 11.5 mph - 0.00 in Snow Light Snow
4:01 AM -9.9 °F -30.5 °F -14.1 °F 82% 30.33 in 7.0 mi West 12.7 mph - 0.00 in Snow Light Snow
5:01 AM -14.1 °F -37.4 °F -18.0 °F 82% 30.33 in 10.0 mi West 15.0 mph - 0.00 in   Unknown
6:01 AM -11.9 °F -32.0 °F -16.1 °F 82% 30.31 in 8.0 mi West 11.5 mph - 0.00 in Snow Light Snow
7:01 AM -9.9 °F -32.1 °F -14.1 °F 82% 30.30 in 10.0 mi West 15.0 mph - 0.00 in   Unknown
8:01 AM -9.0 °F -26.4 °F -13.0 °F 83% 30.29 in 9.0 mi WSW 9.2 mph - 0.00 in Snow Light Snow
9:01 AM -6.0 °F -24.6 °F -9.9 °F 83% 30.28 in 10.0 mi West 11.5 mph - 0.00 in Snow Light Snow
10:01 AM -2.9 °F -25.0 °F -7.1 °F 82% 30.27 in 9.0 mi West 18.4 mph - 0.00 in   Unknown
11:01 AM -2.0 °F -21.9 °F -6.0 °F 83% 30.27 in 8.0 mi West 15.0 mph - N/A   Unknown
12:01 PM -0.0 °F -21.3 °F -4.0 °F 83% 30.26 in 8.0 mi West 18.4 mph - N/A   Unknown
1:01 PM 1.9 °F -18.1 °F -2.9 °F 80% 30.25 in 7.0 mi West 17.3 mph - N/A   Unknown
2:01 PM 3.0 °F -17.8 °F -2.0 °F 80% 30.24 in 9.0 mi West 19.6 mph - N/A   Unknown
3:01 PM 3.0 °F -16.7 °F -0.9 °F 84% 30.23 in 10.0 mi West 17.3 mph - N/A   Unknown
4:01 PM 3.0 °F -17.3 °F -0.9 °F 84% 30.22 in 10.0 mi West 18.4 mph - N/A   Unknown
5:01 PM 3.0 °F -17.3 °F -0.9 °F 84% 30.21 in 10.0 mi West 18.4 mph - N/A   Unknown
6:01 PM 3.9 °F -15.0 °F -0.9 °F 80% 30.20 in 10.0 mi West 16.1 mph - N/A   Unknown
7:01 PM 3.9 °F -13.0 °F -0.9 °F 80% 30.19 in 10.0 mi West 12.7 mph - N/A   Unknown
8:01 PM 3.0 °F -13.3 °F -2.0 °F 80% 30.19 in 10.0 mi West 11.5 mph - N/A   Unknown
9:01 PM 1.0 °F -14.0 °F -4.0 °F 79% 30.18 in 10.0 mi WSW 9.2 mph - N/A   Unknown
10:01 PM -2.0 °F -19.6 °F -7.1 °F 79% 30.18 in 10.0 mi WSW 11.5 mph - N/A   Unknown
11:01 PM -5.1 °F -23.5 °F -9.0 °F 83% 30.18 in 10.0 mi WSW 11.5 mph - N/A   Unknown